Washington, PA

3:02 AM EST on December 10, 2019 (GMT -0500)
Washington County

Weather History for KAFJ - October, 2019

Change the Weather History Date:

Friday, October 4, 2019

  Actual Average Record
Temperature  
Mean Temperature 58 °F -  
Max Temperature 66 °F 64 °F 93 °F (2007)
Min Temperature 48 °F 42 °F 28 °F (1996)
Degree Days  
Heating Degree Days 6    
Growing Degree Days 8 (Base 50)    
Moisture  
Dew Point 50 °F    
Average Humidity 73    
Maximum Humidity 90    
Minimum Humidity 48    
Precipitation  
Precipitation 0.00 in - - ()
Sea Level Pressure  
Sea Level Pressure 30.23 in    
Wind  
Wind Speed 7 mph ()    
Max Wind Speed 14 mph    
Max Gust Speed 20 mph    
Visibility 10.0 miles    
Events      
Averages and records for this station are not official NWS values.
T = Trace of Precipitation, MM = Missing Value Source: Averaged Metar Reports

Daily Weather History Graph

Daily Weather History Graph

Search for Another Location

Airport or City:

Astronomy

Oct. 04, 2019 Rise Set
Actual Time 7:20 AM EDT 6:58 PM EDT
Civil Twilight 6:53 AM EDT 7:25 PM EDT
Nautical Twilight 6:21 AM EDT 7:57 PM EDT
Astronomical Twilight 5:50 AM EDT 8:28 PM EDT
Moon 1:50 PM EDT (10/4) 11:26 PM EDT (10/4)
Length of Visible Light 12h 32m
Length of Day
11h 38m
Waxing Crescent, 39% of the Moon is Illuminated
Oct 4
Waxing Crescent
Oct 5
First Quarter
Oct 13
Full
Oct 21
Last Quarter
Oct 27
New

Hourly Weather History & Observations

Time (EDT) Temp. Dew Point Humidity Pressure Visibility Wind Dir Wind Speed Gust Speed Precip Events Conditions
12:45 AM 66.2 °F 60.8 °F 83% 30.08 in 10.0 mi NNW 8.1 mph - N/A   Scattered Clouds
12:56 AM 66.9 °F 61.0 °F 81% 30.06 in 10.0 mi NW 6.9 mph - N/A   Scattered Clouds
1:56 AM 64.9 °F 57.9 °F 78% 30.08 in 10.0 mi NW 10.4 mph - N/A   Partly Cloudy
2:56 AM 62.1 °F 55.9 °F 80% 30.10 in 10.0 mi NW 8.1 mph - N/A   Overcast
3:49 AM 60.8 °F 53.6 °F 77% 30.14 in 10.0 mi NW 8.1 mph - N/A   Overcast
3:56 AM 61.0 °F 54.0 °F 78% 30.12 in 10.0 mi NW 9.2 mph - N/A   Overcast
4:56 AM 57.9 °F 51.1 °F 78% 30.13 in 10.0 mi West 5.8 mph - N/A   Clear
5:56 AM 55.0 °F 51.1 °F 86% 30.15 in 10.0 mi West 5.8 mph - N/A   Clear
6:56 AM 54.0 °F 51.1 °F 90% 30.18 in 10.0 mi West 3.5 mph - N/A   Clear
7:56 AM 55.9 °F 51.1 °F 84% 30.20 in 10.0 mi WNW 5.8 mph - N/A   Overcast
8:56 AM 57.0 °F 52.0 °F 83% 30.24 in 10.0 mi Variable 4.6 mph - N/A   Overcast
9:07 AM 57.2 °F 51.8 °F 82% 30.25 in 10.0 mi WNW 6.9 mph - N/A   Overcast
9:39 AM 59.0 °F 51.8 °F 77% 30.26 in 10.0 mi NW 9.2 mph - N/A   Overcast
9:52 AM 59.0 °F 51.8 °F 77% 30.26 in 10.0 mi NW 4.6 mph - N/A   Overcast
9:56 AM 59.0 °F 52.0 °F 78% 30.25 in 10.0 mi WNW 3.5 mph - N/A   Overcast
10:56 AM 59.0 °F 48.9 °F 69% 30.26 in 10.0 mi NNW 6.9 mph - N/A   Overcast
11:07 AM 60.8 °F 51.8 °F 72% 30.27 in 10.0 mi NNW 6.9 mph - N/A   Overcast
11:56 AM 64.0 °F 48.0 °F 56% 30.25 in 10.0 mi North 8.1 mph - N/A   Mostly Cloudy
12:56 PM 66.0 °F 46.0 °F 48% 30.26 in 10.0 mi North 9.2 mph - N/A   Mostly Cloudy
1:56 PM 64.9 °F 46.9 °F 52% 30.26 in 10.0 mi NW 9.2 mph - N/A   Overcast
2:56 PM 64.9 °F 48.0 °F 54% 30.25 in 10.0 mi North 6.9 mph - N/A   Overcast
3:56 PM 61.0 °F 50.0 °F 67% 30.27 in 10.0 mi North 12.7 mph 19.6 mph N/A   Overcast
4:56 PM 64.0 °F 48.0 °F 56% 30.26 in 10.0 mi North 13.8 mph - N/A   Mostly Cloudy
5:56 PM 62.1 °F 46.9 °F 58% 30.27 in 10.0 mi NW 5.8 mph - N/A   Mostly Cloudy
6:56 PM 57.9 °F 46.9 °F 67% 30.29 in 10.0 mi North 10.4 mph - N/A   Partly Cloudy
7:56 PM 55.9 °F 45.0 °F 67% 30.31 in 10.0 mi North 12.7 mph - N/A   Overcast
8:56 PM 53.1 °F 45.0 °F 74% 30.33 in 10.0 mi NNE 9.2 mph - N/A   Overcast
9:56 PM 52.0 °F 45.0 °F 77% 30.34 in 10.0 mi NNE 10.4 mph - N/A   Overcast
10:56 PM 51.1 °F 44.1 °F 77% 30.35 in 10.0 mi ENE 11.5 mph - N/A   Scattered Clouds
11:56 PM 48.9 °F 42.1 °F 77% 30.36 in 10.0 mi NE 9.2 mph - N/A   Clear